Minden, LA

6:13 PM CDT on June 27, 2017 (GMT -0500)
Minden

Weather History for KMNE - December, 2012

Change the Weather History Date:

Sunday, December 30, 2012

  Actual Average (KBAD) Record (KBAD)
Temperature  
Mean Temperature 36 °F -  
Max Temperature 48 °F 55 °F 73 °F (1999)
Min Temperature 25 °F 36 °F 26 °F (2003)
Degree Days  
Heating Degree Days 28    
Moisture  
Dew Point 25 °F    
Average Humidity 57    
Maximum Humidity 92    
Minimum Humidity 35    
Precipitation  
Precipitation 0.00 in - - ()
Sea Level Pressure  
Sea Level Pressure 30.42 in    
Wind  
Wind Speed 3 mph (ESE)    
Max Wind Speed 8 mph    
Max Gust Speed -    
Visibility 10 miles    
Events      
Averages and records for this station are not official NWS values.
T = Trace of Precipitation, MM = Missing Value Source: NWS Daily Summary

Daily Weather History Graph

Daily Weather History Graph

Search for Another Location

Airport or City:

Trip Planner

Search our weather history database for the weather conditions in past years. The results will help you decide how hot, cold, wet, or windy it might be!

Date:

Astronomy

Dec. 30, 2012 Rise Set
Actual Time 7:14 AM CST 5:17 PM CST
Civil Twilight 6:47 AM CST 5:44 PM CST
Nautical Twilight 6:17 AM CST 6:15 PM CST
Astronomical Twilight 5:47 AM CST 6:45 PM CST
Moon 7:40 PM CST (12/30) 8:31 AM CST (12/30)
Length of Visible Light 10h 56m
Length of Day
10h 02m
Waning Gibbous, 95% of the Moon is Illuminated
Dec 30
Waning Gibbous
Jan 4
Last Quarter
Jan 11
New
Jan 18
First Quarter
Jan 26
Full

Hourly Weather History & Observations

Time (CST) Temp. Windchill Dew Point Humidity Pressure Visibility Wind Dir Wind Speed Gust Speed Precip Events Conditions
12:15 AM 27.0 °F - 24.8 °F 92% 30.46 in 10.0 mi Calm Calm - N/A   Clear
12:35 AM 27.3 °F - 24.8 °F 90% 30.46 in 10.0 mi Calm Calm - N/A   Clear
12:55 AM 27.5 °F - 25.0 °F 90% 30.46 in 10.0 mi Calm Calm - N/A   Clear
1:15 AM 26.4 °F - 24.3 °F 92% 30.46 in 10.0 mi Calm Calm - N/A   Clear
1:35 AM 26.6 °F - 24.6 °F 92% 30.47 in 10.0 mi Calm Calm - N/A   Clear
1:55 AM 27.1 °F - 24.8 °F 91% 30.47 in 10.0 mi Calm Calm - N/A   Clear
2:15 AM 26.8 °F - 24.4 °F 91% 30.48 in 10.0 mi Calm Calm - N/A   Clear
7:35 AM 25.7 °F - 23.0 °F 89% 30.53 in 10.0 mi Calm Calm - N/A   Clear
7:55 AM 27.3 °F - 24.3 °F 88% 30.53 in 10.0 mi Calm Calm - N/A   Clear
8:15 AM 30.2 °F 26.7 °F 24.8 °F 80% 30.53 in 10.0 mi East 3.5 mph - N/A   Clear
8:35 AM 32.0 °F - 25.7 °F 78% 30.53 in 10.0 mi Calm Calm - N/A   Clear
8:55 AM 33.1 °F 26.9 °F 25.9 °F 75% 30.53 in 10.0 mi ESE 6.9 mph - N/A   Clear
9:15 AM 34.9 °F 29.0 °F 25.7 °F 69% 30.53 in 10.0 mi ESE 6.9 mph - N/A   Clear
9:35 AM 37.0 °F 31.0 °F 25.3 °F 63% 30.53 in 10.0 mi ESE 8.1 mph - N/A   Clear
9:55 AM 38.3 °F 33.9 °F 25.2 °F 59% 30.53 in 10.0 mi ESE 5.8 mph - N/A   Clear
10:15 AM 40.1 °F 35.3 °F 24.4 °F 54% 30.53 in 10.0 mi East 6.9 mph - N/A   Clear
10:35 AM 41.4 °F 36.8 °F 24.4 °F 51% 30.52 in 10.0 mi East 6.9 mph - N/A   Clear
10:55 AM 41.9 °F 37.5 °F 23.5 °F 48% 30.51 in 10.0 mi East 6.9 mph - N/A   Clear
11:15 AM 44.1 °F 40.8 °F 23.7 °F 45% 30.51 in 10.0 mi SE 5.8 mph - N/A   Clear
11:35 AM 44.4 °F 40.0 °F 22.5 °F 42% 30.50 in 10.0 mi SE 8.1 mph - N/A   Clear
11:55 AM 44.1 °F 40.1 °F 22.3 °F 42% 30.48 in 10.0 mi ESE 6.9 mph - N/A   Clear
12:15 PM 46.4 °F 42.9 °F 22.3 °F 39% 30.45 in 10.0 mi ESE 6.9 mph - N/A   Clear
12:35 PM 46.9 °F - 21.6 °F 37% 30.44 in 10.0 mi SE 6.9 mph - N/A   Clear
12:55 PM 48.2 °F - 21.4 °F 35% 30.43 in 10.0 mi ESE 5.8 mph - N/A   Clear
1:15 PM 47.1 °F - 21.2 °F 36% 30.43 in 10.0 mi ESE 3.5 mph - N/A   Clear
1:35 PM 46.8 °F - 21.6 °F 37% 30.42 in 10.0 mi ESE 3.5 mph - N/A   Clear
1:55 PM 48.6 °F - 21.9 °F 35% 30.40 in 10.0 mi ESE 6.9 mph - N/A   Clear
2:15 PM 47.7 °F - 21.2 °F 35% 30.40 in 10.0 mi SSE 4.6 mph - N/A   Clear
2:35 PM 47.8 °F - 21.4 °F 35% 30.42 in 10.0 mi Calm Calm - N/A   Clear
2:55 PM 48.0 °F - 21.4 °F 35% 30.41 in 10.0 mi Calm Calm - N/A   Clear
3:15 PM 47.7 °F - 21.7 °F 36% 30.40 in 10.0 mi ESE 3.5 mph - N/A   Clear
3:35 PM 47.3 °F - 21.9 °F 37% 30.40 in 10.0 mi Calm Calm - N/A   Clear
3:55 PM 47.7 °F - 23.2 °F 38% 30.40 in 10.0 mi ESE 3.5 mph - N/A   Clear
4:15 PM 47.3 °F - 24.1 °F 40% 30.39 in 10.0 mi SE 3.5 mph - N/A   Clear
4:35 PM 46.9 °F - 24.1 °F 41% 30.39 in 10.0 mi SE 4.6 mph - N/A   Clear
4:55 PM 46.4 °F 45.2 °F 23.9 °F 41% 30.39 in 10.0 mi SSE 3.5 mph - N/A   Clear
5:15 PM 45.5 °F 43.2 °F 24.6 °F 44% 30.38 in 10.0 mi SE 4.6 mph - N/A   Clear
5:35 PM 44.8 °F 43.3 °F 25.7 °F 47% 30.37 in 10.0 mi SE 3.5 mph - N/A   Clear
5:55 PM 44.6 °F - 26.4 °F 49% 30.37 in 10.0 mi Calm Calm - N/A   Clear
6:15 PM 44.8 °F - 25.9 °F 48% 30.38 in 10.0 mi Calm Calm - N/A   Clear
6:35 PM 44.2 °F 41.8 °F 26.8 °F 50% 30.38 in 10.0 mi ESE 4.6 mph - N/A   Clear
6:55 PM 44.2 °F 41.8 °F 26.8 °F 50% 30.36 in 10.0 mi ESE 4.6 mph - N/A   Clear
7:15 PM 44.1 °F 40.8 °F 26.6 °F 50% 30.36 in 10.0 mi ESE 5.8 mph - N/A   Clear
7:35 PM 43.9 °F 40.5 °F 27.1 °F 52% 30.36 in 10.0 mi ESE 5.8 mph - N/A   Clear
7:55 PM 43.7 °F 40.3 °F 27.5 °F 53% 30.37 in 10.0 mi ESE 5.8 mph - N/A   Clear
8:15 PM 43.3 °F 40.7 °F 27.7 °F 54% 30.36 in 10.0 mi East 4.6 mph - N/A   Clear
8:35 PM 43.0 °F 39.5 °F 28.0 °F 56% 30.37 in 10.0 mi ESE 5.8 mph - N/A   Clear
8:55 PM 42.6 °F 39.0 °F 28.4 °F 57% 30.35 in 10.0 mi SE 5.8 mph - N/A   Clear
9:15 PM 42.1 °F 38.4 °F 28.4 °F 58% 30.34 in 10.0 mi ESE 5.8 mph - N/A   Clear
9:35 PM 41.9 °F 37.5 °F 28.4 °F 59% 30.33 in 10.0 mi ESE 6.9 mph - N/A   Clear
9:55 PM 41.7 °F 37.3 °F 28.4 °F 59% 30.33 in 10.0 mi ESE 6.9 mph - N/A   Clear
10:15 PM 41.4 °F 37.6 °F 28.6 °F 60% 30.33 in 10.0 mi ESE 5.8 mph - N/A   Clear
10:35 PM 41.2 °F 37.3 °F 28.6 °F 61% 30.33 in 10.0 mi ESE 5.8 mph - N/A   Clear
10:55 PM 41.0 °F 39.0 °F 28.8 °F 62% 30.33 in 10.0 mi SE 3.5 mph - N/A   Clear
11:15 PM 40.3 °F 37.1 °F 28.9 °F 64% 30.33 in 10.0 mi ESE 4.6 mph - N/A   Clear
11:35 PM 39.9 °F 36.7 °F 29.3 °F 66% 30.32 in 10.0 mi ESE 4.6 mph - N/A   Clear
11:55 PM 40.1 °F 38.0 °F 29.3 °F 65% 30.32 in 10.0 mi SE 3.5 mph - N/A   Clear